Location: Godiavel Galaoual
(15.2485°N, 12.6604°W)
Time: 18:23:15
(UTC+00:00)

H-2A R/B - Pass Details

Date: 27 February 2020
Orbit: 733 x 837 km, 98.2° (Epoch: 02 April)

Event Time Altitude Azimuth Distance (km) Brightness Sun altitude
Exits shadow 21:44:15 18° 300° (WNW) 1,915 4.5 -40.9°
Drops below altitude 10° 21:46:04 10° 316° (NW) 2,423 5.0 -41.3°
Sets 21:48:50 0° 329° (NNW) 3,367 5.7 -42.0°
